Location: ???? ????
(41.4149°N, 22.8816°E)
Time: 14:24:16
(UTC+00:00)

COBE Rocket - Pass Details

Date: 14 July 2020
Orbit: 679 x 783 km, 97.1° (Epoch: 03 August)

Event Time Altitude Azimuth Distance (km) Brightness Sun altitude
Exits shadow 00:44:24 18° 152° (SSE) 1,785 5.6 -20.1°
Maximum altitude 00:48:05 63° 75° (ENE) 830 4.3 -19.8°
Drops below altitude 10° 00:52:56 10° 355° (N) 2,233 7.1 -19.3°
Sets 00:55:12 0° 352° (N) 3,143 7.9 -19.0°
